Location: Rock River
(41.7433°N, 105.9768°W)
Time: 23:57:17
(UTC+00:00)

SR - All Passes

Search period start: 26 May 2022 00:00
Search period end: 05 June 2022 00:00
Orbit: 574 x 879 km, 66.7° (Epoch: 25 May)

Date Brightness Start Highest point End Pass type
(mag) Time Alt. Az. Time Alt. Az. Time Alt. Az.
26 May - 10:33:05 10° SSE 10:36:25 19° ESE 10:39:58 10° ENE visible
26 May - 12:13:15 10° SW 12:17:56 52° NW 12:23:05 10° NNE daylight
26 May - 13:59:54 10° NW 14:01:22 11° NNW 14:02:52 10° NNW daylight
26 May - 19:11:42 10° N 19:16:17 24° NE 19:20:58 10° E daylight
26 May - 20:53:05 10° NW 20:58:55 71° WSW 21:04:47 10° SSE daylight
26 May - 22:39:38 10° W 22:40:01 10° W 22:40:23 10° WSW daylight
27 May - 11:23:04 10° SSW 11:27:48 78° ESE 11:33:02 10° NNE daylight
27 May - 13:07:10 10° W 13:10:35 18° NW 13:14:12 10° N daylight
27 May - 18:22:25 10° N 18:25:37 15° NE 18:28:50 10° ENE daylight
27 May - 20:02:59 10° NNW 20:08:48 64° ENE 20:14:40 10° SE daylight
27 May - 21:46:06 10° WNW 21:50:25 21° WSW 21:54:43 10° SSW daylight
28 May - 10:33:35 10° S 10:37:54 37° ESE 10:42:38 10° NE visible
28 May - 12:15:42 10° WSW 12:20:01 31° NW 12:24:42 10° NNE daylight
28 May - 19:13:08 10° NNW 19:18:30 37° NE 19:23:56 10° ESE daylight
28 May - 20:55:12 10° NW 21:00:39 41° WSW 21:06:06 10° S daylight
29 May - 09:45:05 10° SE 09:48:14 18° ESE 09:51:34 10° ENE visible
29 May - 11:24:57 10° SW 11:29:40 57° NW 11:34:54 10° NNE daylight
29 May - 13:11:06 10° NW 13:13:02 12° NNW 13:15:01 10° N daylight
29 May - 18:23:31 10° N 18:28:00 22° NE 18:32:33 10° E daylight
29 May - 20:04:50 10° NNW 20:10:42 77° WSW 20:16:36 10° SSE daylight
29 May - 21:50:10 10° W 21:51:51 11° W 21:53:33 10° WSW daylight
30 May - 10:34:49 10° SSW 10:39:34 72° ESE 10:44:48 10° NE visible
30 May - 12:18:40 10° W 12:22:16 19° NW 12:26:06 10° N daylight
30 May - 17:34:19 10° N 17:37:17 14° NE 17:40:18 10° ENE daylight
30 May - 19:14:46 10° NNW 19:20:34 60° ENE 19:26:24 10° SE daylight
30 May - 20:57:43 10° WNW 21:02:14 23° WSW 21:06:45 10° SSW daylight
31 May - 09:45:25 10° S 09:49:42 34° ESE 09:54:21 10° NE visible
31 May - 11:27:17 10° WSW 11:31:43 33° NW 11:36:32 10° NNE daylight
31 May - 18:24:57 10° NNW 18:30:14 34° NE 18:35:35 10° ESE daylight
31 May - 20:06:54 10° NW 20:12:27 44° WSW 20:17:59 10° S daylight
01 Jun - 08:57:06 10° SE 09:00:03 16° ESE 09:03:08 10° ENE visible
01 Jun - 10:36:37 10° SW 10:41:24 62° WNW 10:46:41 10° NNE visible
01 Jun - 12:22:24 10° WNW 12:24:41 13° NW 12:27:03 10° N daylight
01 Jun - 17:35:21 10° N 17:39:42 21° NE 17:44:06 10° E daylight
01 Jun - 19:16:34 10° NNW 19:22:29 82° WSW 19:28:22 10° SSE daylight
01 Jun - 21:01:21 10° WNW 21:03:41 12° WSW 21:06:01 10° SW daylight
02 Jun - 09:46:35 10° SSW 09:51:19 66° ESE 09:56:34 10° NE visible
02 Jun - 11:30:10 10° W 11:33:57 21° NW 11:37:58 10° N daylight
02 Jun - 16:46:13 10° N 16:48:57 13° NE 16:51:42 10° ENE daylight
02 Jun - 18:26:32 10° NNW 18:32:19 56° NE 18:38:06 10° SE daylight
02 Jun - 20:09:21 10° NW 20:14:03 25° WSW 20:18:44 10° SSW daylight
03 Jun - 08:57:17 10° S 09:01:29 31° ESE 09:06:02 10° NE visible
03 Jun - 10:38:53 10° WSW 10:43:25 36° NW 10:48:21 10° NNE visible
03 Jun - 17:36:44 10° NNW 17:41:58 32° NE 17:47:13 10° ESE daylight
03 Jun - 19:18:36 10° NW 19:24:14 48° WSW 19:29:51 10° S daylight
04 Jun - 08:09:10 10° SE 08:11:51 15° ESE 08:14:39 10° ENE visible
04 Jun - 09:48:17 10° SW 09:53:07 68° WNW 09:58:28 10° NNE visible
04 Jun - 11:33:44 10° WNW 11:36:20 14° NW 11:39:02 10° N daylight
04 Jun - 16:47:10 10° N 16:51:23 20° NE 16:55:38 10° E daylight
04 Jun - 18:28:19 10° NNW 18:34:15 88° WSW 18:40:08 10° SSE daylight
04 Jun - 20:12:41 10° WNW 20:15:30 14° WSW 20:18:19 10° SW daylight
